Tracking 29511 objects as of 17-Sep-2024
HD Live streaming from Space Station
objects crossing your sky now

STARLINK-5325

Track STARLINK-5325 now!
10-day predictions
STARLINK-5325 is classified as:


NORAD ID: 55292
Int'l Code: 2023-010Z
Perigee: 576.7 km
Apogee: 581.3 km
Inclination: 70.0 °
Period: 96.1 minutes
Semi major axis: 6950 km
RCS: Unknown
Launch date: January 19, 2023
Source: United States (US)
Launch site: AIR FORCE WESTERN TEST RANGE (AFWTR)
Your satellite tracking list
Your tracking list is empty




NASA's NSSDC Master Catalog

Two Line Element Set (TLE):
1 55292U 23010Z   24261.22700013  .00023280  00000-0  19499-2 0  9998
2 55292  70.0001 302.0722 0003313 272.5148  87.5632 14.98379376 92300
Source of the keplerian elements: AFSPC